Sarasota, FL

12:51 AM EST on December 10, 2019 (GMT -0500)
Sarasota-bradenton

Weather History for KSRQ - September, 2019

Change the Weather History Date:

Sunday, September 29, 2019

  Actual Average Record
Temperature  
Mean Temperature 84 °F 80 °F  
Max Temperature 93 °F 88 °F 94 °F (1921)
Min Temperature 75 °F 72 °F 61 °F (1962)
Degree Days  
Heating Degree Days 0 0  
Month to date heating degree days 0 0  
Since 1 July heating degree days 0 0  
Cooling Degree Days 19 15  
Month to date cooling degree days 578 478  
Year to date cooling degree days 3436 2775  
Growing Degree Days 34 (Base 50)    
Moisture  
Dew Point 70 °F    
Average Humidity 67    
Maximum Humidity 88    
Minimum Humidity 44    
Precipitation  
Precipitation 0.00 in 0.15 in 2.76 in (1929)
Month to date precipitation 1.99 6.96  
Year to date precipitation 43.38 45.29  
Sea Level Pressure  
Sea Level Pressure 30.05 in    
Wind  
Wind Speed 7 mph ()    
Max Wind Speed 17 mph    
Max Gust Speed 22 mph    
Visibility 10.0 miles    
Events      
T = Trace of Precipitation, MM = Missing Value Source: Averaged Metar Reports

Daily Weather History Graph

Daily Weather History Graph

Search for Another Location

Airport or City:

Astronomy

Sep. 29, 2019 Rise Set
Actual Time 7:21 AM EDT 7:18 PM EDT
Civil Twilight 6:58 AM EDT 7:42 PM EDT
Nautical Twilight 6:31 AM EDT 8:09 PM EDT
Astronomical Twilight 6:04 AM EDT 8:36 PM EDT
Moon 8:10 AM EDT (9/29) 8:22 PM EDT (9/29)
Length of Visible Light 12h 43m
Length of Day
11h 57m
New Moon, 1% of the Moon is Illuminated
Sep 29
New Moon
Oct 5
First Quarter
Oct 13
Full
Oct 21
Last Quarter
Oct 27
New

Hourly Weather History & Observations

Time (EDT) Temp. Heat Index Dew Point Humidity Pressure Visibility Wind Dir Wind Speed Gust Speed Precip Events Conditions
12:53 AM 79.0 °F - 72.0 °F 79% 30.06 in 10.0 mi East 8.1 mph - N/A   Clear
1:53 AM 78.1 °F - 73.0 °F 84% 30.05 in 10.0 mi East 6.9 mph - N/A   Clear
2:53 AM 77.0 °F - 73.0 °F 88% 30.04 in 10.0 mi East 6.9 mph - N/A   Clear
3:53 AM 77.0 °F - 73.0 °F 88% 30.02 in 10.0 mi East 6.9 mph - N/A   Clear
4:53 AM 77.0 °F - 73.0 °F 88% 30.02 in 10.0 mi ENE 4.6 mph - N/A   Clear
5:53 AM 75.9 °F - 72.0 °F 87% 30.04 in 10.0 mi ENE 4.6 mph - N/A   Clear
6:53 AM 75.9 °F - 72.0 °F 87% 30.06 in 10.0 mi ENE 4.6 mph - N/A   Clear
7:53 AM 75.9 °F - 72.0 °F 87% 30.07 in 10.0 mi ENE 5.8 mph - N/A   Clear
8:53 AM 80.1 °F 84.2 °F 73.0 °F 79% 30.10 in 10.0 mi ENE 8.1 mph - N/A   Clear
9:53 AM 82.9 °F 88.8 °F 73.0 °F 72% 30.11 in 10.0 mi ENE 10.4 mph - N/A   Clear
10:53 AM 86.0 °F 91.5 °F 71.1 °F 61% 30.11 in 10.0 mi East 13.8 mph 19.6 mph N/A   Scattered Clouds
11:53 AM 88.0 °F 92.9 °F 70.0 °F 55% 30.10 in 10.0 mi East 10.4 mph - N/A   Scattered Clouds
12:53 PM 89.1 °F 93.7 °F 69.1 °F 52% 30.09 in 10.0 mi East 12.7 mph - N/A   Scattered Clouds
1:53 PM 91.9 °F 95.4 °F 66.9 °F 44% 30.06 in 10.0 mi ESE 10.4 mph - N/A   Scattered Clouds
2:53 PM 91.9 °F 95.9 °F 68.0 °F 45% 30.03 in 10.0 mi East 12.7 mph - N/A   Partly Cloudy
3:53 PM 91.9 °F 95.9 °F 68.0 °F 45% 30.01 in 10.0 mi East 8.1 mph - N/A   Scattered Clouds
4:53 PM 91.0 °F 96.6 °F 70.0 °F 50% 30.00 in 10.0 mi East 11.5 mph 19.6 mph N/A   Scattered Clouds
5:53 PM 91.9 °F 95.9 °F 68.0 °F 45% 30.00 in 10.0 mi ENE 10.4 mph - N/A   Clear
6:53 PM 89.1 °F 92.1 °F 66.9 °F 48% 29.99 in 10.0 mi East 8.1 mph - N/A   Clear
7:53 PM 86.0 °F 89.4 °F 68.0 °F 55% 30.01 in 10.0 mi East 11.5 mph - N/A   Clear
8:53 PM 84.0 °F 87.8 °F 69.1 °F 61% 30.03 in 10.0 mi East 10.4 mph - N/A   Clear
9:53 PM 82.0 °F 85.9 °F 70.0 °F 67% 30.05 in 10.0 mi East 10.4 mph - N/A   Clear
10:53 PM 81.0 °F 84.4 °F 70.0 °F 69% 30.07 in 10.0 mi East 9.2 mph - N/A   Clear
11:53 PM 80.1 °F 83.2 °F 70.0 °F 71% 30.07 in 10.0 mi ENE 8.1 mph - N/A   Clear